Location: Poughquag
(41.6090°N, 73.6820°W)
Time: 09:04:31
(UTC-04:00)

A-11 Canister half - All Passes

Search period start: 14 October 2019 00:00
Search period end: 24 October 2019 00:00
Orbit: 1514 x 1686 km, 47.2° (Epoch: 13 October)

Date Brightness Start Highest point End Pass type
(mag) Time Alt. Az. Time Alt. Az. Time Alt. Az.
14 Oct - 01:54:33 10° SSE 02:00:38 18° SE 02:06:37 10° E visible
14 Oct - 03:54:32 10° SW 04:04:12 60° SE 04:13:33 10° ENE visible
14 Oct - 05:59:24 10° W 06:09:11 72° NNW 06:18:38 10° ENE visible
14 Oct - 08:05:31 10° WNW 08:15:03 65° N 08:24:17 10° E daylight
14 Oct - 10:10:55 10° WNW 10:20:18 76° SSW 10:29:30 10° SE daylight
14 Oct - 12:16:55 10° WNW 12:24:03 26° SW 12:31:10 10° S daylight
15 Oct - 01:32:11 10° SSE 01:37:49 17° SE 01:43:20 10° E visible
15 Oct - 03:31:40 10° SW 03:41:18 57° SE 03:50:36 10° ENE visible
15 Oct - 05:36:24 10° WSW 05:46:13 73° NNW 05:55:42 10° ENE visible
15 Oct - 07:42:31 10° WNW 07:52:04 64° N 08:01:19 10° E daylight
15 Oct - 09:47:57 10° WNW 09:57:24 79° SSW 10:06:38 10° SE daylight
15 Oct - 11:53:49 10° WNW 12:01:14 28° SW 12:08:36 10° S daylight
16 Oct - 01:09:55 10° SSE 01:14:59 15° ESE 01:19:59 10° E visible
16 Oct - 03:08:49 10° SW 03:18:24 55° SE 03:27:40 10° ENE visible
16 Oct - 05:13:24 10° WSW 05:23:15 75° NNW 05:32:46 10° ENE visible
16 Oct - 07:19:31 10° WNW 07:29:06 64° N 07:38:22 10° E daylight
16 Oct - 09:25:01 10° WNW 09:34:30 82° SSW 09:43:45 10° SE daylight
16 Oct - 11:30:46 10° WNW 11:38:25 30° SW 11:46:00 10° S daylight
17 Oct - 00:47:45 10° SSE 00:52:10 14° ESE 00:56:31 10° E visible
17 Oct - 02:45:59 10° SSW 02:55:31 52° SE 03:04:44 10° ENE visible
17 Oct - 04:50:23 10° WSW 05:00:17 77° NNW 05:09:51 10° ENE visible
17 Oct - 06:56:30 10° WNW 07:06:08 63° N 07:15:24 10° E daylight
17 Oct - 09:02:03 10° WNW 09:11:35 85° SSW 09:20:52 10° ESE daylight
17 Oct - 11:07:43 10° WNW 11:15:36 32° SW 11:23:23 10° S daylight
18 Oct - 00:25:46 10° SE 00:29:21 12° ESE 00:32:54 10° E visible
18 Oct - 02:23:10 10° SSW 02:32:37 49° SE 02:41:46 10° ENE visible
18 Oct - 04:27:23 10° WSW 04:37:20 79° NNW 04:46:55 10° ENE visible
18 Oct - 06:33:30 10° WNW 06:43:09 63° N 06:52:27 10° E visible
18 Oct - 08:39:05 10° WNW 08:48:41 88° SSW 08:57:58 10° ESE daylight
18 Oct - 10:44:41 10° WNW 10:52:46 34° SW 11:00:45 10° SSE daylight
19 Oct - 00:04:08 10° SE 00:06:32 11° ESE 00:08:55 10° ESE night (unlit)
19 Oct - 02:00:22 10° SSW 02:09:44 46° SE 02:18:49 10° ENE visible
19 Oct - 04:04:23 10° WSW 04:14:23 81° NNW 04:24:00 10° ENE visible
19 Oct - 06:10:29 10° W 06:20:10 63° N 06:29:29 10° E visible
19 Oct - 08:16:08 10° WNW 08:25:46 89° NNE 08:35:04 10° ESE daylight
19 Oct - 10:21:39 10° WNW 10:29:57 37° SW 10:38:06 10° SSE daylight
20 Oct - 01:37:34 10° SSW 01:46:51 44° SE 01:55:51 10° ENE visible
20 Oct - 03:41:24 10° WSW 03:51:25 84° NNW 04:01:05 10° ENE visible
20 Oct - 05:47:27 10° W 05:57:10 63° N 06:06:32 10° E visible
20 Oct - 07:53:10 10° WNW 08:02:50 86° NNE 08:12:10 10° ESE daylight
20 Oct - 09:58:38 10° WNW 10:07:07 39° SW 10:15:24 10° SSE daylight
21 Oct - 01:14:48 10° SSW 01:23:58 41° SE 01:32:52 10° ENE visible
21 Oct - 03:18:25 10° WSW 03:28:27 86° NNW 03:38:10 10° ENE visible
21 Oct - 05:24:26 10° W 05:34:11 63° N 05:43:35 10° E visible
21 Oct - 07:30:12 10° WNW 07:39:54 84° NNE 07:49:15 10° ESE daylight
21 Oct - 09:35:38 10° WNW 09:44:16 42° SW 09:52:43 10° SSE daylight
22 Oct - 00:52:04 10° SSW 01:01:05 39° SE 01:09:54 10° ENE visible
22 Oct - 02:55:26 10° WSW 03:05:30 89° NNW 03:15:14 10° ENE visible
22 Oct - 05:01:25 10° W 05:11:12 63° N 05:20:37 10° E visible
22 Oct - 07:07:14 10° WNW 07:16:58 82° NNE 07:26:20 10° ESE daylight
22 Oct - 09:12:38 10° WNW 09:21:25 44° SW 09:30:00 10° SSE daylight
23 Oct - 00:29:19 10° SSW 00:38:13 37° SE 00:46:54 10° ENE visible
23 Oct - 02:32:27 10° WSW 02:42:34 89° SSE 02:52:19 10° ENE visible
23 Oct - 04:38:23 10° W 04:48:13 63° N 04:57:40 10° ENE visible
23 Oct - 06:44:16 10° WNW 06:54:01 79° NNE 07:03:25 10° ESE visible
23 Oct - 08:49:39 10° WNW 08:58:34 47° SW 09:07:16 10° SSE daylight
23 Oct - 10:59:50 10° WSW 11:01:33 11° WSW 11:03:16 10° SW daylight
